CMB830 Details

Departure: Keflavík International Airport (BIKF)
Arrival: Joint Base McGuire Dix Lakehurst (KWRI) at N/A
Route: RALOV1D RALOV RAKIS 6235N N6040 5944N 5650N YAY J580 YQY YQI J585 ACK J62 RIFLE J174 EMJAY HEADI
Notes: USTRANSCOM CONTRACT FLIGHT


Current Weather Information
BIKF 230700Z 04023G34KT 9999 FEW028 SCT280 M01/M07 Q1016
KWRI 230656Z AUTO 28006KT 10SM OVC060 16/15 A2979 RMK AO2 SLP087 T01550149